Santa Margarita Lake Weather Center

Moon Phase Calendar



Santa Margarita Lake Water Level
Online Cameras

 


      

Current Conditions in San Luis Obispo
10/4/2022 6:36:30 AM

57°F
Feels Like 54
Clear
Humidity
55%
Pressure
29.97"
Wind
4.2 mph (NE)
Dew Point
41°F
UV Index
0/10 (Low)
Visibility
6 mi

Hourly Forecast

Date & Time Tue, Oct 4
6:00 AM
Tue, Oct 4
7:00 AM
Tue, Oct 4
8:00 AM
Tue, Oct 4
9:00 AM
Tue, Oct 4
10:00 AM
Tue, Oct 4
11:00 AM
Tue, Oct 4
12:00 PM
Tue, Oct 4
1:00 PM
Tue, Oct 4
2:00 PM
Tue, Oct 4
3:00 PM
Tue, Oct 4
4:00 PM
Tue, Oct 4
5:00 PM
Tue, Oct 4
6:00 PM
Tue, Oct 4
7:00 PM
Tue, Oct 4
8:00 PM
Tue, Oct 4
9:00 PM
Tue, Oct 4
10:00 PM
Tue, Oct 4
11:00 PM
Wed, Oct 5
12:00 AM
Wed, Oct 5
1:00 AM
Wed, Oct 5
2:00 AM
Wed, Oct 5
3:00 AM
Wed, Oct 5
4:00 AM
Wed, Oct 5
5:00 AM
Wed, Oct 5
6:00 AM
Wed, Oct 5
7:00 AM
Wed, Oct 5
8:00 AM
Wed, Oct 5
9:00 AM
Wed, Oct 5
10:00 AM
Wed, Oct 5
11:00 AM
Wed, Oct 5
12:00 PM
Wed, Oct 5
1:00 PM
Wed, Oct 5
2:00 PM
Wed, Oct 5
3:00 PM
Wed, Oct 5
4:00 PM
Wed, Oct 5
5:00 PM
Wed, Oct 5
6:00 PM
Wed, Oct 5
7:00 PM
Wed, Oct 5
8:00 PM
Wed, Oct 5
9:00 PM
Wed, Oct 5
10:00 PM
Wed, Oct 5
11:00 PM
Thu, Oct 6
12:00 AM
Thu, Oct 6
1:00 AM
Thu, Oct 6
2:00 AM
Thu, Oct 6
3:00 AM
Thu, Oct 6
4:00 AM
Thu, Oct 6
5:00 AM
Condition
Clear

Clear

Clear

Clear

Clear

Clear

Clear

Clear

Clear

Clear

Clear

Clear

Clear

Clear

Clear

Clear

Clear

Clouds

Clouds

Clear

Clear

Clear

Clear

Clear

Clear

Clear

Clear

Clear

Clear

Clear

Clear

Clear

Clear

Clear

Clear

Clear

Clear

Clear

Clear

Clear

Clear

Clear

Clear

Clear

Clear

Clear

Clear

Clear
Temperature 58°F57°F58°F63°F69°F77°F85°F87°F87°F87°F86°F84°F79°F71°F70°F70°F70°F69°F69°F69°F68°F67°F67°F66°F65°F65°F68°F76°F81°F85°F88°F89°F89°F88°F87°F84°F79°F72°F70°F68°F68°F67°F68°F68°F68°F67°F67°F67°F
Feels Like 56°F54°F56°F61°F68°F76°F82°F84°F84°F84°F83°F82°F78°F70°F68°F68°F68°F68°F67°F67°F66°F65°F65°F64°F63°F63°F67°F74°F79°F82°F85°F86°F86°F85°F84°F82°F79°F70°F68°F67°F66°F66°F66°F67°F66°F66°F65°F65°F
Cloudiness 0%0%0%0%0%0%0%0%0%1%1%1%0%0%0%1%7%12%18%9%6%5%4%3%0%0%0%0%0%0%0%0%0%0%0%0%0%0%0%0%0%0%0%0%0%0%1%2%
Visibility 6 mi6 mi6 mi6 mi6 mi6 mi6 mi6 mi6 mi6 mi6 mi6 mi6 mi6 mi6 mi6 mi6 mi6 mi6 mi6 mi6 mi6 mi6 mi6 mi6 mi6 mi6 mi6 mi6 mi6 mi6 mi6 mi6 mi6 mi6 mi6 mi6 mi6 mi6 mi6 mi6 mi6 mi6 mi6 mi6 mi6 mi6 mi6 mi
Precipitation 0%0%0%0%0%0%0%0%0%0%0%0%0%0%0%0%0%0%0%0%0%0%0%0%0%0%0%0%0%0%0%0%0%0%0%0%0%0%0%0%0%0%0%0%0%0%0%0%
Humidity 54%55%54%48%41%32%23%22%22%22%23%25%35%46%46%42%39%36%34%34%34%35%36%36%37%37%35%28%24%21%19%18%19%20%21%24%32%43%46%47%48%47%44%42%42%42%42%41%
Dew Point 41°F41°F42°F43°F45°F45°F44°F43°F43°F43°F43°F43°F47°F47°F46°F44°F43°F41°F40°F39°F39°F39°F39°F38°F38°F38°F40°F40°F41°F41°F41°F41°F41°F41°F42°F43°F46°F47°F47°F47°F47°F46°F45°F44°F44°F43°F43°F42°F
Pressure 29.97"29.97"29.97"29.97"29.97"29.94"29.94"29.94"29.91"29.88"29.88"29.88"29.88"29.91"29.94"29.94"29.94"29.94"29.94"29.94"29.94"29.94"29.94"29.94"29.94"29.94"29.97"29.97"29.97"29.97"29.94"29.94"29.91"29.88"29.88"29.88"29.91"29.94"29.94"29.97"29.97"29.97"29.97"29.97"29.97"29.97"29.94"29.97"
Wind Speed 4.4 mph4.2 mph3.9 mph3.4 mph3.2 mph2.4 mph1.7 mph1.4 mph1.9 mph1.9 mph1.5 mph1.2 mph1.1 mph1.4 mph2.1 mph2.3 mph2.5 mph3.1 mph3.5 mph3.8 mph4 mph3.8 mph3.9 mph4 mph3.8 mph3.7 mph3.6 mph2.6 mph2 mph1.2 mph0.2 mph1.8 mph3.2 mph4.1 mph4.5 mph4.5 mph4.1 mph2.9 mph2.6 mph2.6 mph2 mph0.8 mph1.2 mph2.1 mph2.2 mph2.1 mph1.9 mph2.1 mph
Wind
Direction
42°
NE
41°
NE
41°
NE
42°
NE
40°
NE
30°
NNE
17°
NNE
332°
NNW
304°
NW
300°
WNW
300°
WNW
292°
WNW
211°
SSW
139°
SE
103°
ESE
72°
ENE
52°
NE
47°
NE
39°
NE
36°
NE
40°
NE
38°
NE
38°
NE
43°
NE
42°
NE
48°
NE
48°
NE
43°
NE
44°
NE
51°
NE
275°
W
251°
WSW
250°
WSW
250°
WSW
249°
WSW
244°
WSW
231°
SW
204°
SSW
182°
S
167°
SSE
162°
SSE
120°
ESE
49°
NE
42°
NE
37°
NE
47°
NE
44°
NE
47°
NE

Daily Forecast

Date High Low Precip. Humidity
Today
Oct 4

Clear
87 °F
57 °F
0%
23%
Wednesday
Oct 5

Clear
89 °F
65 °F
0%
19%
Thursday
Oct 6

Clear
89 °F
67 °F
0%
22%
Friday
Oct 7

Clear
93 °F
67 °F
0%
18%
Saturday
Oct 8

Clear
89 °F
65 °F
0%
19%
Sunday
Oct 9

Clear
83 °F
60 °F
0%
26%
Monday
Oct 10

Clear
84 °F
59 °F
0%
28%
Tuesday
Oct 11

Clear
84 °F
59 °F
0%
23%
Wednesday
Oct 12

Clear
80 °F
56 °F
0%
32%
Thursday
Oct 13

Clear
85 °F
59 °F
0%
24%
Friday
Oct 14

Clear
82 °F
57 °F
0%
32%
Saturday
Oct 15

Clear
81 °F
55 °F
0%
27%
Sunday
Oct 16

Clear
85 °F
57 °F
0%
25%
Monday
Oct 17

Clear
91 °F
64 °F
0%
13%
Tuesday
Oct 18

Clear
94 °F
66 °F
0%
9%
Wednesday
Oct 19

Clear
90 °F
65 °F
0%
9%

Temperature 8-14 Day Outlook



Precipitation 8-14 Day Outlook




Quick Links
Santa Margarita Lake News
Santa Margarita Lake Photos
Santa Margarita Lake Videos




About Us
Contact Us
Site Map
Search Site
Advertise With Us
   
Santa-Margarita.LakesOnline.com
THE SANTA MARGARITA LAKE WEBSITE

Copyright 2022, Lakes Online
Privacy    |    Legal